Year,Month,Day,Hour,Minute,Value (Times are PST for temperature in C)
2023,05,14,00,00,18.30
2023,05,14,00,01,18.30
2023,05,14,00,02,18.30
2023,05,14,00,03,18.20
2023,05,14,00,04,18.20
2023,05,14,00,05,18.20
2023,05,14,00,06,18.20
2023,05,14,00,07,18.20
2023,05,14,00,08,18.20
2023,05,14,00,09,18.10
2023,05,14,00,10,18.10
2023,05,14,00,11,18.10
2023,05,14,00,12,18.10
2023,05,14,00,13,18.10
2023,05,14,00,14,18.10
2023,05,14,00,15,18.10
2023,05,14,00,16,18.10
2023,05,14,00,17,18.10
2023,05,14,00,18,18.10
2023,05,14,00,19,18.10
2023,05,14,00,20,18.10
2023,05,14,00,21,18.10
2023,05,14,00,22,18.10
2023,05,14,00,23,18.10
2023,05,14,00,24,18.10
2023,05,14,00,25,18.10
2023,05,14,00,26,17.90
2023,05,14,00,27,17.90
2023,05,14,00,28,17.90
2023,05,14,00,29,17.90
2023,05,14,00,30,17.90
2023,05,14,00,31,17.90
2023,05,14,00,32,17.90
2023,05,14,00,33,17.90
2023,05,14,00,34,17.90
2023,05,14,00,35,17.80
2023,05,14,00,36,17.80
2023,05,14,00,37,17.80
2023,05,14,00,38,17.80
2023,05,14,00,39,17.70
2023,05,14,00,40,17.70
2023,05,14,00,41,17.70
2023,05,14,00,42,17.60
2023,05,14,00,43,17.60
2023,05,14,00,44,17.60
2023,05,14,00,45,17.50
2023,05,14,00,46,17.50
2023,05,14,00,47,17.50
2023,05,14,00,48,17.40
2023,05,14,00,49,17.40
2023,05,14,00,50,17.40
2023,05,14,00,51,17.40
2023,05,14,00,52,17.30
2023,05,14,00,53,17.30
2023,05,14,00,54,17.30
2023,05,14,00,55,17.30
2023,05,14,00,56,17.30
2023,05,14,00,57,17.30
2023,05,14,00,58,17.30
2023,05,14,00,59,17.20
2023,05,14,01,00,17.20
2023,05,14,01,01,17.20
2023,05,14,01,02,17.20
2023,05,14,01,03,17.20
2023,05,14,01,04,17.20
2023,05,14,01,05,17.20
2023,05,14,01,06,17.20
2023,05,14,01,07,17.20
2023,05,14,01,08,17.20
2023,05,14,01,09,17.20
2023,05,14,01,10,17.20
2023,05,14,01,11,17.20
2023,05,14,01,12,17.20
2023,05,14,01,13,17.20
2023,05,14,01,14,17.20
2023,05,14,01,15,17.20
2023,05,14,01,16,17.20
2023,05,14,01,17,17.20
2023,05,14,01,18,17.20
2023,05,14,01,19,17.20
2023,05,14,01,20,17.20
2023,05,14,01,21,17.20
2023,05,14,01,22,17.20
2023,05,14,01,23,17.20
2023,05,14,01,24,17.20
2023,05,14,01,25,17.20
2023,05,14,01,26,17.20
2023,05,14,01,27,17.20
2023,05,14,01,28,17.20
2023,05,14,01,29,17.20
2023,05,14,01,30,17.20
2023,05,14,01,31,17.20
2023,05,14,01,32,17.10
2023,05,14,01,33,17.10
2023,05,14,01,34,17.10
2023,05,14,01,35,17.10
2023,05,14,01,36,17.10
2023,05,14,01,37,17.10
2023,05,14,01,38,17.10
2023,05,14,01,39,17.10
2023,05,14,01,40,17.10
2023,05,14,01,41,17.10
2023,05,14,01,42,17.20
2023,05,14,01,43,17.20
2023,05,14,01,44,17.20
2023,05,14,01,45,17.20
2023,05,14,01,46,17.20
2023,05,14,01,47,17.20
2023,05,14,01,48,17.20
2023,05,14,01,49,17.20
2023,05,14,01,50,17.20
2023,05,14,01,51,17.20
2023,05,14,01,52,17.20
2023,05,14,01,53,17.20
2023,05,14,01,54,17.20
2023,05,14,01,55,17.20
2023,05,14,01,56,17.20
2023,05,14,01,57,17.20
2023,05,14,01,58,17.10
2023,05,14,01,59,17.10
2023,05,14,02,00,17.10
2023,05,14,02,01,17.00
2023,05,14,02,02,17.00
2023,05,14,02,03,17.00
2023,05,14,02,04,17.00
2023,05,14,02,05,16.90
2023,05,14,02,06,16.90
2023,05,14,02,07,16.90
2023,05,14,02,08,16.90
2023,05,14,02,09,16.80
2023,05,14,02,10,16.80
2023,05,14,02,11,16.80
2023,05,14,02,12,16.70
2023,05,14,02,13,16.70
2023,05,14,02,14,16.70
2023,05,14,02,15,16.70
2023,05,14,02,16,16.70
2023,05,14,02,17,16.70
2023,05,14,02,18,16.60
2023,05,14,02,19,16.60
2023,05,14,02,20,16.50
2023,05,14,02,21,16.40
2023,05,14,02,22,16.40
2023,05,14,02,23,16.40
2023,05,14,02,24,16.40
2023,05,14,02,25,16.30
2023,05,14,02,26,16.30
2023,05,14,02,27,16.30
2023,05,14,02,28,16.20
2023,05,14,02,29,16.20
2023,05,14,02,30,16.20
2023,05,14,02,31,16.10
2023,05,14,02,32,16.10
2023,05,14,02,33,16.10
2023,05,14,02,34,16.10
2023,05,14,02,35,16.10
2023,05,14,02,36,16.10
2023,05,14,02,37,15.90
2023,05,14,02,38,15.90
2023,05,14,02,39,15.90
2023,05,14,02,40,15.80
2023,05,14,02,41,15.80
2023,05,14,02,42,15.80
2023,05,14,02,43,15.80
2023,05,14,02,44,15.80
2023,05,14,02,45,15.80
2023,05,14,02,46,15.70
2023,05,14,02,47,15.70
2023,05,14,02,48,15.70
2023,05,14,02,49,15.60
2023,05,14,02,50,15.60
2023,05,14,02,51,15.60
2023,05,14,02,52,15.50
2023,05,14,02,53,15.50
2023,05,14,02,54,15.50
2023,05,14,02,55,15.50
2023,05,14,02,56,15.50
2023,05,14,02,57,15.40
2023,05,14,02,58,15.40
2023,05,14,02,59,15.40
2023,05,14,03,00,15.40
2023,05,14,03,01,15.30
2023,05,14,03,02,15.30
2023,05,14,03,03,15.30
2023,05,14,03,04,15.30
2023,05,14,03,05,15.30
2023,05,14,03,06,15.30
2023,05,14,03,07,15.30
2023,05,14,03,08,15.30
2023,05,14,03,09,15.30
2023,05,14,03,10,15.30
2023,05,14,03,11,15.30
2023,05,14,03,12,15.30
2023,05,14,03,13,15.30
2023,05,14,03,14,15.30
2023,05,14,03,15,15.30
2023,05,14,03,16,15.30
2023,05,14,03,17,15.30
2023,05,14,03,18,15.30
2023,05,14,03,19,15.30
2023,05,14,03,20,15.30
2023,05,14,03,21,15.30
2023,05,14,03,22,15.30
2023,05,14,03,23,15.30
2023,05,14,03,24,15.30
2023,05,14,03,25,15.30
2023,05,14,03,26,15.30
2023,05,14,03,27,15.30
2023,05,14,03,28,15.30
2023,05,14,03,29,15.30
2023,05,14,03,30,15.30
2023,05,14,03,31,15.30
2023,05,14,03,32,15.30
2023,05,14,03,33,15.30
2023,05,14,03,34,15.30
2023,05,14,03,35,15.30
2023,05,14,03,36,15.30
2023,05,14,03,37,15.30
2023,05,14,03,38,15.30
2023,05,14,03,39,15.40
2023,05,14,03,40,15.40
2023,05,14,03,41,15.40
2023,05,14,03,42,15.40
2023,05,14,03,43,15.50
2023,05,14,03,44,15.50
2023,05,14,03,45,15.50
2023,05,14,03,46,15.60
2023,05,14,03,47,15.60
2023,05,14,03,48,15.70
2023,05,14,03,49,15.70
2023,05,14,03,50,15.60
2023,05,14,03,51,15.60
2023,05,14,03,52,15.60
2023,05,14,03,53,15.50
2023,05,14,03,54,15.50
2023,05,14,03,55,15.50
2023,05,14,03,56,15.50
2023,05,14,03,57,15.40
2023,05,14,03,58,15.40
2023,05,14,03,59,15.40
2023,05,14,04,00,15.40
2023,05,14,04,01,15.40
2023,05,14,04,02,15.30
2023,05,14,04,03,15.30
2023,05,14,04,04,15.30
2023,05,14,04,05,15.30
2023,05,14,04,06,15.40
2023,05,14,04,07,15.40
2023,05,14,04,08,15.40
2023,05,14,04,09,15.50
2023,05,14,04,10,15.50
2023,05,14,04,11,15.60
2023,05,14,04,12,15.70
2023,05,14,04,13,15.80
2023,05,14,04,14,15.90
2023,05,14,04,15,16.00
2023,05,14,04,16,16.10
2023,05,14,04,17,16.20
2023,05,14,04,18,16.30
2023,05,14,04,19,16.40
2023,05,14,04,20,16.40
2023,05,14,04,21,16.60
2023,05,14,04,22,16.70
2023,05,14,04,23,16.70
2023,05,14,04,24,16.80
2023,05,14,04,25,16.90
2023,05,14,04,26,17.00
2023,05,14,04,27,17.10
2023,05,14,04,28,17.20
2023,05,14,04,29,17.20
2023,05,14,04,30,17.30
2023,05,14,04,31,17.30
2023,05,14,04,32,17.40
2023,05,14,04,33,17.40
2023,05,14,04,34,17.50
2023,05,14,04,35,17.60
2023,05,14,04,36,17.60
2023,05,14,04,37,17.70
2023,05,14,04,38,17.70
2023,05,14,04,39,17.70
2023,05,14,04,40,17.70
2023,05,14,04,41,17.80
2023,05,14,04,42,17.80
2023,05,14,04,43,17.80
2023,05,14,04,44,17.80
2023,05,14,04,45,17.80
2023,05,14,04,46,17.80
2023,05,14,04,47,17.80
2023,05,14,04,48,17.80
2023,05,14,04,49,17.70
2023,05,14,04,50,17.70
2023,05,14,04,51,17.70
2023,05,14,04,52,17.70
2023,05,14,04,53,17.60
2023,05,14,04,54,17.60
2023,05,14,04,55,17.60
2023,05,14,04,56,17.60
2023,05,14,04,57,17.60
2023,05,14,04,58,17.60
2023,05,14,04,59,17.60
2023,05,14,05,00,17.60
2023,05,14,05,01,17.60
2023,05,14,05,02,17.60
2023,05,14,05,03,17.50
2023,05,14,05,04,17.50
2023,05,14,05,05,17.50
2023,05,14,05,06,17.50
2023,05,14,05,07,17.50
2023,05,14,05,08,17.50
2023,05,14,05,09,17.50
2023,05,14,05,10,17.50
2023,05,14,05,11,17.50
2023,05,14,05,12,17.50
2023,05,14,05,13,17.50
2023,05,14,05,14,17.50
2023,05,14,05,15,17.50
2023,05,14,05,16,17.50
2023,05,14,05,17,17.50
2023,05,14,05,18,17.40
2023,05,14,05,19,17.40
2023,05,14,05,20,17.40
2023,05,14,05,21,17.40
2023,05,14,05,22,17.40
2023,05,14,05,23,17.30
2023,05,14,05,24,17.30
2023,05,14,05,25,17.30
2023,05,14,05,26,17.30
2023,05,14,05,27,17.30
2023,05,14,05,28,17.30
2023,05,14,05,29,17.30
2023,05,14,05,30,17.30
2023,05,14,05,31,17.20
2023,05,14,05,32,17.20
2023,05,14,05,33,17.20
2023,05,14,05,34,17.10
2023,05,14,05,35,17.10
2023,05,14,05,36,17.00
2023,05,14,05,37,17.00
2023,05,14,05,38,17.00
2023,05,14,05,39,17.00
2023,05,14,05,40,16.90
2023,05,14,05,41,16.90
2023,05,14,05,42,16.80
2023,05,14,05,43,16.80
2023,05,14,05,44,16.70
2023,05,14,05,45,16.70
2023,05,14,05,46,16.70
2023,05,14,05,47,16.70
2023,05,14,05,48,16.60
2023,05,14,05,49,16.60
2023,05,14,05,50,16.60
2023,05,14,05,51,16.60
2023,05,14,05,52,16.50
2023,05,14,05,53,16.40
2023,05,14,05,54,16.40
2023,05,14,05,55,16.40
2023,05,14,05,56,16.40
2023,05,14,05,57,16.30
2023,05,14,05,58,16.20
2023,05,14,05,59,16.10
2023,05,14,06,00,16.10
2023,05,14,06,01,16.00
2023,05,14,06,02,15.90
2023,05,14,06,03,15.80
2023,05,14,06,04,15.80
2023,05,14,06,05,15.80
2023,05,14,06,06,15.80
2023,05,14,06,07,15.80
2023,05,14,06,08,15.70
2023,05,14,06,09,15.70
2023,05,14,06,10,15.70
2023,05,14,06,11,15.70
2023,05,14,06,12,15.70
2023,05,14,06,13,15.70
2023,05,14,06,14,15.70
2023,05,14,06,15,15.70
2023,05,14,06,16,15.70
2023,05,14,06,17,15.70
2023,05,14,06,18,15.70
2023,05,14,06,19,15.70
2023,05,14,06,20,15.70
2023,05,14,06,21,15.80
2023,05,14,06,22,15.80
2023,05,14,06,23,15.80
2023,05,14,06,24,15.80
2023,05,14,06,25,15.80
2023,05,14,06,26,15.80
2023,05,14,06,27,15.80
2023,05,14,06,28,15.80
2023,05,14,06,29,15.90
2023,05,14,06,30,15.90
2023,05,14,06,31,15.90
2023,05,14,06,32,15.80
2023,05,14,06,33,15.80
2023,05,14,06,34,15.80
2023,05,14,06,35,15.80
2023,05,14,06,36,15.80
2023,05,14,06,37,15.80
2023,05,14,06,38,15.80
2023,05,14,06,39,15.80
2023,05,14,06,40,15.80
2023,05,14,06,41,15.70
2023,05,14,06,42,15.70
2023,05,14,06,43,15.70
2023,05,14,06,44,15.70
2023,05,14,06,45,15.70
2023,05,14,06,46,15.70
2023,05,14,06,47,15.70
2023,05,14,06,48,15.80
2023,05,14,06,49,15.80
2023,05,14,06,50,15.80
2023,05,14,06,51,15.80
2023,05,14,06,52,15.70
2023,05,14,06,53,15.70
2023,05,14,06,54,15.70
2023,05,14,06,55,15.70
2023,05,14,06,56,15.70
2023,05,14,06,57,15.70
2023,05,14,06,58,15.70
2023,05,14,06,59,15.70
2023,05,14,07,00,15.70
2023,05,14,07,01,15.70
2023,05,14,07,02,15.70
2023,05,14,07,03,15.70
2023,05,14,07,04,15.80
2023,05,14,07,05,15.80
2023,05,14,07,06,15.80
2023,05,14,07,07,15.80
2023,05,14,07,08,15.80
2023,05,14,07,09,15.80
2023,05,14,07,10,15.80
2023,05,14,07,11,15.80
2023,05,14,07,12,15.80
2023,05,14,07,13,15.90
2023,05,14,07,14,16.00
2023,05,14,07,15,16.10
2023,05,14,07,16,16.10
2023,05,14,07,17,16.20
2023,05,14,07,18,16.20
2023,05,14,07,19,16.30
2023,05,14,07,20,16.30
2023,05,14,07,21,16.30
2023,05,14,07,22,16.30
2023,05,14,07,23,16.30
2023,05,14,07,24,16.40
2023,05,14,07,25,16.40
2023,05,14,07,26,16.40
2023,05,14,07,27,16.40
2023,05,14,07,28,16.50
2023,05,14,07,29,16.60
2023,05,14,07,30,16.60
2023,05,14,07,31,16.60
2023,05,14,07,32,16.60
2023,05,14,07,33,16.70
2023,05,14,07,34,16.70
2023,05,14,07,35,16.70
2023,05,14,07,36,16.70
2023,05,14,07,37,16.70
2023,05,14,07,38,16.80
2023,05,14,07,39,16.90
2023,05,14,07,40,17.00
2023,05,14,07,41,17.00
2023,05,14,07,42,17.10
2023,05,14,07,43,17.20
2023,05,14,07,44,17.30
2023,05,14,07,45,17.30
2023,05,14,07,46,17.30
2023,05,14,07,47,17.40
2023,05,14,07,48,17.40
2023,05,14,07,49,17.50
2023,05,14,07,50,17.60
2023,05,14,07,51,17.70
2023,05,14,07,52,17.70
2023,05,14,07,53,17.80
2023,05,14,07,54,17.90
2023,05,14,07,55,17.90
2023,05,14,07,56,18.00
2023,05,14,07,57,18.20
2023,05,14,07,58,18.30
2023,05,14,07,59,18.40
2023,05,14,08,00,18.50
2023,05,14,08,01,18.60
2023,05,14,08,02,18.80
2023,05,14,08,03,19.00
2023,05,14,08,04,19.00
2023,05,14,08,05,18.90
2023,05,14,08,06,18.80
2023,05,14,08,07,18.70
2023,05,14,08,08,18.60
2023,05,14,08,09,18.60
2023,05,14,08,10,18.50
2023,05,14,08,11,18.50
2023,05,14,08,12,18.50
2023,05,14,08,13,18.60
2023,05,14,08,14,18.60
2023,05,14,08,15,18.70
2023,05,14,08,16,18.60
2023,05,14,08,17,18.60
2023,05,14,08,18,18.70
2023,05,14,08,19,18.70
2023,05,14,08,20,18.70
2023,05,14,08,21,18.90
2023,05,14,08,22,18.90
2023,05,14,08,23,19.00
2023,05,14,08,24,19.10
2023,05,14,08,25,19.20
2023,05,14,08,26,19.40
2023,05,14,08,27,19.50
2023,05,14,08,28,19.60
2023,05,14,08,29,19.70
2023,05,14,08,30,19.80
2023,05,14,08,31,20.00
2023,05,14,08,32,20.20
2023,05,14,08,33,20.30
2023,05,14,08,34,20.50
2023,05,14,08,35,20.60
2023,05,14,08,36,20.70
2023,05,14,08,37,20.80
2023,05,14,08,38,20.90
2023,05,14,08,39,21.00
2023,05,14,08,40,21.10
2023,05,14,08,41,21.20
2023,05,14,08,42,21.30
2023,05,14,08,43,21.40
2023,05,14,08,44,21.50
2023,05,14,08,45,21.60
2023,05,14,08,46,21.70
2023,05,14,08,47,21.70
2023,05,14,08,48,21.80
2023,05,14,08,49,21.90
2023,05,14,08,50,22.00
2023,05,14,08,51,22.10
2023,05,14,08,52,22.20
2023,05,14,08,53,22.20
2023,05,14,08,54,22.30
2023,05,14,08,55,22.30
2023,05,14,08,56,22.40
2023,05,14,08,57,22.40
2023,05,14,08,58,22.40
2023,05,14,08,59,22.50
2023,05,14,09,00,22.60
2023,05,14,09,01,22.60
2023,05,14,09,02,22.70
2023,05,14,09,03,22.80
2023,05,14,09,04,22.90
2023,05,14,09,05,22.90
2023,05,14,09,06,22.90
2023,05,14,09,07,22.90
2023,05,14,09,08,23.00
2023,05,14,09,09,23.10
2023,05,14,09,10,23.10
2023,05,14,09,11,23.20
2023,05,14,09,12,23.30
2023,05,14,09,13,23.30
2023,05,14,09,14,23.20
2023,05,14,09,15,23.10
2023,05,14,09,16,23.00
2023,05,14,09,17,23.10
2023,05,14,09,18,23.20
2023,05,14,09,19,23.20
2023,05,14,09,20,23.10
2023,05,14,09,21,23.00
2023,05,14,09,22,23.10
2023,05,14,09,23,23.10
2023,05,14,09,24,23.10
2023,05,14,09,25,23.10
2023,05,14,09,26,23.10
2023,05,14,09,27,23.10
2023,05,14,09,28,23.20
2023,05,14,09,29,23.20
2023,05,14,09,30,23.20
2023,05,14,09,31,23.20
2023,05,14,09,32,23.20
2023,05,14,09,33,23.20
2023,05,14,09,34,23.20
2023,05,14,09,35,23.30
2023,05,14,09,36,23.30
2023,05,14,09,37,23.30
2023,05,14,09,38,23.30
2023,05,14,09,39,23.30
2023,05,14,09,40,23.40
2023,05,14,09,41,23.40
2023,05,14,09,42,23.50
2023,05,14,09,43,23.70
2023,05,14,09,44,23.70
2023,05,14,09,45,23.70
2023,05,14,09,46,23.70
2023,05,14,09,47,23.80
2023,05,14,09,48,23.80
2023,05,14,09,49,23.90
2023,05,14,09,50,24.00
2023,05,14,09,51,24.10
2023,05,14,09,52,24.10
2023,05,14,09,53,24.20
2023,05,14,09,54,24.20
2023,05,14,09,55,24.20
2023,05,14,09,56,24.20
2023,05,14,09,57,24.20
2023,05,14,09,58,24.20
2023,05,14,09,59,24.30
2023,05,14,10,00,24.30
2023,05,14,10,01,24.40
2023,05,14,10,02,24.50
2023,05,14,10,03,24.50
2023,05,14,10,04,24.50
2023,05,14,10,05,24.40
2023,05,14,10,06,24.20
2023,05,14,10,07,24.10
2023,05,14,10,08,24.00
2023,05,14,10,09,23.90
2023,05,14,10,10,23.90
2023,05,14,10,11,23.90
2023,05,14,10,12,23.70
2023,05,14,10,13,23.70
2023,05,14,10,14,23.70
2023,05,14,10,15,23.70
2023,05,14,10,16,23.70
2023,05,14,10,17,23.80
2023,05,14,10,18,24.00
2023,05,14,10,19,24.10
2023,05,14,10,20,24.20
2023,05,14,10,21,24.10
2023,05,14,10,22,24.10
2023,05,14,10,23,24.20
2023,05,14,10,24,24.20
2023,05,14,10,25,24.20
2023,05,14,10,26,24.30
2023,05,14,10,27,24.40
2023,05,14,10,28,24.40
2023,05,14,10,29,24.50
2023,05,14,10,30,24.60
2023,05,14,10,31,24.70
2023,05,14,10,32,24.80
2023,05,14,10,33,24.90
2023,05,14,10,34,25.00
2023,05,14,10,35,25.10
2023,05,14,10,36,25.20
2023,05,14,10,37,25.30
2023,05,14,10,38,25.40
2023,05,14,10,39,25.40
2023,05,14,10,40,25.30
2023,05,14,10,41,25.40
2023,05,14,10,42,25.40
2023,05,14,10,43,25.40
2023,05,14,10,44,25.60
2023,05,14,10,45,25.60
2023,05,14,10,46,25.70
2023,05,14,10,47,25.70
2023,05,14,10,48,25.70
2023,05,14,10,49,25.70
2023,05,14,10,50,25.70
2023,05,14,10,51,25.70
2023,05,14,10,52,25.70
2023,05,14,10,53,25.70
2023,05,14,10,54,25.60
2023,05,14,10,55,25.50
2023,05,14,10,56,25.40
2023,05,14,10,57,25.40
2023,05,14,10,58,25.40
2023,05,14,10,59,25.40
2023,05,14,11,00,25.40
2023,05,14,11,01,25.30
2023,05,14,11,02,25.20
2023,05,14,11,03,25.20
2023,05,14,11,04,25.20
2023,05,14,11,05,25.20
2023,05,14,11,06,25.20
2023,05,14,11,07,25.10
2023,05,14,11,08,25.10
2023,05,14,11,09,25.10
2023,05,14,11,10,25.10
2023,05,14,11,11,25.20
2023,05,14,11,12,25.20
2023,05,14,11,13,25.40
2023,05,14,11,14,25.40
2023,05,14,11,15,25.40
2023,05,14,11,16,25.50
2023,05,14,11,17,25.60
2023,05,14,11,18,25.70
2023,05,14,11,19,25.80
2023,05,14,11,20,25.90
2023,05,14,11,21,26.00
2023,05,14,11,22,26.10
2023,05,14,11,23,26.20
2023,05,14,11,24,26.20
2023,05,14,11,25,26.20
2023,05,14,11,26,26.20
2023,05,14,11,27,26.20
2023,05,14,11,28,26.20
2023,05,14,11,29,26.10
2023,05,14,11,30,26.10
2023,05,14,11,31,26.10
2023,05,14,11,32,26.10
2023,05,14,11,33,26.20
2023,05,14,11,34,26.20
2023,05,14,11,35,26.20
2023,05,14,11,36,26.30
2023,05,14,11,37,26.30
2023,05,14,11,38,26.20
2023,05,14,11,39,26.20
2023,05,14,11,40,26.20
2023,05,14,11,41,26.20
2023,05,14,11,42,26.30
2023,05,14,11,43,26.50
2023,05,14,11,44,26.60
2023,05,14,11,45,26.70
2023,05,14,11,46,26.80
2023,05,14,11,47,26.90
2023,05,14,11,48,26.90
2023,05,14,11,49,26.90
2023,05,14,11,50,27.00
2023,05,14,11,51,27.10
2023,05,14,11,52,27.10
2023,05,14,11,53,27.10
2023,05,14,11,54,27.10
2023,05,14,11,55,27.00
2023,05,14,11,56,26.90
2023,05,14,11,57,26.80
2023,05,14,11,58,26.70
2023,05,14,11,59,26.60
2023,05,14,12,00,26.60
2023,05,14,12,01,26.70
2023,05,14,12,02,26.70
2023,05,14,12,03,26.70
2023,05,14,12,04,26.70
2023,05,14,12,05,26.80
2023,05,14,12,06,26.80
2023,05,14,12,07,26.80
2023,05,14,12,08,26.70
2023,05,14,12,09,26.60
2023,05,14,12,10,26.60
2023,05,14,12,11,26.50
2023,05,14,12,12,26.40
2023,05,14,12,13,26.30
2023,05,14,12,14,26.30
2023,05,14,12,15,26.20
2023,05,14,12,16,26.30
2023,05,14,12,17,26.30
2023,05,14,12,18,26.20
2023,05,14,12,19,26.00
2023,05,14,12,20,25.90
2023,05,14,12,21,25.70
2023,05,14,12,22,25.20
2023,05,14,12,23,24.70
2023,05,14,12,24,24.40
2023,05,14,12,25,24.10
2023,05,14,12,26,24.10
2023,05,14,12,27,23.90
2023,05,14,12,28,23.80
2023,05,14,12,29,23.90
2023,05,14,12,30,23.90
2023,05,14,12,31,24.00
2023,05,14,12,32,24.10
2023,05,14,12,33,24.10
2023,05,14,12,34,24.00
2023,05,14,12,35,23.90
2023,05,14,12,36,23.90
2023,05,14,12,37,24.00
2023,05,14,12,38,23.80
2023,05,14,12,39,23.40
2023,05,14,12,40,23.10
2023,05,14,12,41,22.90
2023,05,14,12,42,22.80
2023,05,14,12,43,22.80
2023,05,14,12,44,22.70
2023,05,14,12,45,22.60
2023,05,14,12,46,22.70
2023,05,14,12,47,22.70
2023,05,14,12,48,22.80
2023,05,14,12,49,23.00
2023,05,14,12,50,23.20
2023,05,14,12,51,23.40
2023,05,14,12,52,23.70
2023,05,14,12,53,23.90
2023,05,14,12,54,24.00
2023,05,14,12,55,24.10
2023,05,14,12,56,23.90
2023,05,14,12,57,23.90
2023,05,14,12,58,23.80
2023,05,14,12,59,23.80
2023,05,14,13,00,23.90
2023,05,14,13,01,24.00
2023,05,14,13,02,24.10
2023,05,14,13,03,24.10
2023,05,14,13,04,24.20
2023,05,14,13,05,24.30
2023,05,14,13,06,24.40
2023,05,14,13,07,24.60
2023,05,14,13,08,24.70
2023,05,14,13,09,24.70
2023,05,14,13,10,24.70
2023,05,14,13,11,24.60
2023,05,14,13,12,24.50
2023,05,14,13,13,24.50
2023,05,14,13,14,24.40
2023,05,14,13,15,24.40
2023,05,14,13,16,24.40
2023,05,14,13,17,24.50
2023,05,14,13,18,24.40
2023,05,14,13,19,24.40
2023,05,14,13,20,24.30
2023,05,14,13,21,24.40
2023,05,14,13,22,24.40
2023,05,14,13,23,24.60
2023,05,14,13,24,24.70
2023,05,14,13,25,24.90
2023,05,14,13,26,25.20
2023,05,14,13,27,25.20
2023,05,14,13,28,25.30
2023,05,14,13,29,25.30
2023,05,14,13,30,25.20
2023,05,14,13,31,25.20
2023,05,14,13,32,25.20
2023,05,14,13,33,25.30
2023,05,14,13,34,25.40
2023,05,14,13,35,25.40
2023,05,14,13,36,25.40
2023,05,14,13,37,25.40
2023,05,14,13,38,25.40
2023,05,14,13,39,25.30
2023,05,14,13,40,25.30
2023,05,14,13,41,25.30
2023,05,14,13,42,25.30
2023,05,14,13,43,25.40
2023,05,14,13,44,25.40
2023,05,14,13,45,25.50
2023,05,14,13,46,25.50
2023,05,14,13,47,25.50
2023,05,14,13,48,25.60
2023,05,14,13,49,25.60
2023,05,14,13,50,25.70
2023,05,14,13,51,25.70
2023,05,14,13,52,25.60
2023,05,14,13,53,25.50
2023,05,14,13,54,25.40
2023,05,14,13,55,25.30
2023,05,14,13,56,25.20
2023,05,14,13,57,25.20
2023,05,14,13,58,25.20
2023,05,14,13,59,25.20
2023,05,14,14,00,25.10
2023,05,14,14,01,25.10
2023,05,14,14,02,25.10
2023,05,14,14,03,25.20
2023,05,14,14,04,25.30
2023,05,14,14,05,25.30
2023,05,14,14,06,25.40
2023,05,14,14,07,25.50
2023,05,14,14,08,25.60
2023,05,14,14,09,25.70
2023,05,14,14,10,25.80
2023,05,14,14,11,25.90
2023,05,14,14,12,26.10
2023,05,14,14,13,26.30
2023,05,14,14,14,26.30
2023,05,14,14,15,26.30
2023,05,14,14,16,26.30
2023,05,14,14,17,26.30
2023,05,14,14,18,26.20
2023,05,14,14,19,26.20
2023,05,14,14,20,26.20
2023,05,14,14,21,26.20
2023,05,14,14,22,26.10
2023,05,14,14,23,26.10
2023,05,14,14,24,26.10
2023,05,14,14,25,26.00
2023,05,14,14,26,26.00
2023,05,14,14,27,25.90
2023,05,14,14,28,25.80
2023,05,14,14,29,25.90
2023,05,14,14,30,25.90
2023,05,14,14,31,25.90
2023,05,14,14,32,25.90
2023,05,14,14,33,25.90
2023,05,14,14,34,25.90
2023,05,14,14,35,25.90
2023,05,14,14,36,25.90
2023,05,14,14,37,26.00
2023,05,14,14,38,26.00
2023,05,14,14,39,26.00
2023,05,14,14,40,26.00
2023,05,14,14,41,26.00
2023,05,14,14,42,26.00
2023,05,14,14,43,26.10
2023,05,14,14,44,26.10
2023,05,14,14,45,26.10
2023,05,14,14,46,26.10
2023,05,14,14,47,26.10
2023,05,14,14,48,26.10
2023,05,14,14,49,26.10
2023,05,14,14,50,26.10
2023,05,14,14,51,26.20
2023,05,14,14,52,26.20
2023,05,14,14,53,26.20
2023,05,14,14,54,26.20
2023,05,14,14,55,26.20
2023,05,14,14,56,26.20
2023,05,14,14,57,26.30
2023,05,14,14,58,26.30
2023,05,14,14,59,26.30
2023,05,14,15,00,26.40
2023,05,14,15,01,26.40
2023,05,14,15,02,26.50
2023,05,14,15,03,26.60
2023,05,14,15,04,26.60
2023,05,14,15,05,26.70
2023,05,14,15,06,26.70
2023,05,14,15,07,26.80
2023,05,14,15,08,26.80
2023,05,14,15,09,26.90
2023,05,14,15,10,26.90
2023,05,14,15,11,27.00
2023,05,14,15,12,27.10
2023,05,14,15,13,27.00
2023,05,14,15,14,26.90
2023,05,14,15,15,26.70
2023,05,14,15,16,26.70
2023,05,14,15,17,26.70
2023,05,14,15,18,26.80
2023,05,14,15,19,26.90
2023,05,14,15,20,27.00
2023,05,14,15,21,27.10
2023,05,14,15,22,27.20
2023,05,14,15,23,27.30
2023,05,14,15,24,27.30
2023,05,14,15,25,27.40
2023,05,14,15,26,27.40
2023,05,14,15,27,27.40
2023,05,14,15,28,27.50
2023,05,14,15,29,27.60
2023,05,14,15,30,27.70
2023,05,14,15,31,27.70
2023,05,14,15,32,27.70
2023,05,14,15,33,27.70
2023,05,14,15,34,27.80
2023,05,14,15,35,27.80
2023,05,14,15,36,27.90
2023,05,14,15,37,27.90
2023,05,14,15,38,28.00
2023,05,14,15,39,27.90
2023,05,14,15,40,27.90
2023,05,14,15,41,27.80
2023,05,14,15,42,27.70
2023,05,14,15,43,27.70
2023,05,14,15,44,27.60
2023,05,14,15,45,27.60
2023,05,14,15,46,27.60
2023,05,14,15,47,27.60
2023,05,14,15,48,27.70
2023,05,14,15,49,27.70
2023,05,14,15,50,27.70
2023,05,14,15,51,27.80
2023,05,14,15,52,27.80
2023,05,14,15,53,27.90
2023,05,14,15,54,28.00
2023,05,14,15,55,28.00
2023,05,14,15,56,28.00
2023,05,14,15,57,28.00
2023,05,14,15,58,28.00
2023,05,14,15,59,28.10
2023,05,14,16,00,28.10
2023,05,14,16,01,28.10
2023,05,14,16,02,27.90
2023,05,14,16,03,27.60
2023,05,14,16,04,27.40
2023,05,14,16,05,27.30
2023,05,14,16,06,27.20
2023,05,14,16,07,27.10
2023,05,14,16,08,27.10
2023,05,14,16,09,27.10
2023,05,14,16,10,27.10
2023,05,14,16,11,27.10
2023,05,14,16,12,27.10
2023,05,14,16,13,27.20
2023,05,14,16,14,27.30
2023,05,14,16,15,27.30
2023,05,14,16,16,27.20
2023,05,14,16,17,27.20
2023,05,14,16,18,27.20
2023,05,14,16,19,27.30
2023,05,14,16,20,27.30
2023,05,14,16,21,27.30
2023,05,14,16,22,27.30
2023,05,14,16,23,27.30
2023,05,14,16,24,27.30
2023,05,14,16,25,27.30
2023,05,14,16,26,27.30
2023,05,14,16,27,27.30
2023,05,14,16,28,27.30
2023,05,14,16,29,27.30
2023,05,14,16,30,27.30
2023,05,14,16,31,27.30
2023,05,14,16,32,27.20
2023,05,14,16,33,27.20
2023,05,14,16,34,27.20
2023,05,14,16,35,27.10
2023,05,14,16,36,27.10
2023,05,14,16,37,27.10
2023,05,14,16,38,27.10
2023,05,14,16,39,27.10
2023,05,14,16,40,27.10
2023,05,14,16,41,27.10
2023,05,14,16,42,27.00
2023,05,14,16,43,27.10
2023,05,14,16,44,27.10
2023,05,14,16,45,27.00
2023,05,14,16,46,26.90
2023,05,14,16,47,27.00
2023,05,14,16,48,27.10
2023,05,14,16,49,27.20
2023,05,14,16,50,27.20
2023,05,14,16,51,27.30
2023,05,14,16,52,27.30
2023,05,14,16,53,27.40
2023,05,14,16,54,27.40
2023,05,14,16,55,27.50
2023,05,14,16,56,27.60
2023,05,14,16,57,27.60
2023,05,14,16,58,27.50
2023,05,14,16,59,27.40
2023,05,14,17,00,27.30
2023,05,14,17,01,27.30
2023,05,14,17,02,27.30
2023,05,14,17,03,27.30
2023,05,14,17,04,27.30
2023,05,14,17,05,27.30
2023,05,14,17,06,27.30
2023,05,14,17,07,27.30
2023,05,14,17,08,27.30
2023,05,14,17,09,27.30
2023,05,14,17,10,27.40
2023,05,14,17,11,27.50
2023,05,14,17,12,27.60
2023,05,14,17,13,27.70
2023,05,14,17,14,27.70
2023,05,14,17,15,27.70
2023,05,14,17,16,27.60
2023,05,14,17,17,27.60
2023,05,14,17,18,27.60
2023,05,14,17,19,27.60